Location: Ferintosh
(52.7647°N, 112.9692°W)
Time: 13:48:37
(UTC+00:00)

Transit 2A Rocket - Pass Details

Date: 19 May 2024
Orbit: 583 x 910 km, 66.7° (Epoch: 14 June)

Event Time Altitude Azimuth Distance (km) Brightness Sun altitude
Rises 15:45:53 0° 288° (WNW) 3,164 7.7 36.4°
Reaches altitude 10° 15:48:49 10° 305° (NW) 2,306 7.1 36.8°
Maximum altitude 15:52:42 20° 352° (N) 1,791 6.9 37.4°
Drops below altitude 10° 15:56:48 10° 39° (NE) 2,464 8.0 37.9°
Sets 16:00:04 0° 56° (NE) 3,453 8.8 38.4°
